TimeHST,TemperatureF,Dew PointF,Humidity,Sea Level PressureIn,VisibilityMPH,Wind Direction,Wind SpeedMPH,Gust SpeedMPH,PrecipitationIn,Events,Conditions,WindDirDegrees,DateUTC
12:57 AM,75.2,68.0,78,29.94,10.0,SSW,9.2,-,N/A,,Mostly Cloudy,210,2012-12-03 10:57:00
1:57 AM,77.0,68.0,74,29.93,10.0,SW,11.5,-,N/A,,Mostly Cloudy,230,2012-12-03 11:57:00
2:57 AM,77.0,66.9,71,29.91,10.0,SW,4.6,-,N/A,,Scattered Clouds,220,2012-12-03 12:57:00
3:57 AM,77.0,66.9,71,29.90,10.0,SSW,6.9,-,N/A,,Partly Cloudy,210,2012-12-03 13:57:00
4:57 AM,77.0,66.9,71,29.88,10.0,South,4.6,-,N/A,,Mostly Cloudy,190,2012-12-03 14:57:00
5:57 AM,77.0,66.9,71,29.89,10.0,SSE,5.8,-,N/A,,Mostly Cloudy,160,2012-12-03 15:57:00
6:57 AM,77.0,66.2,69,29.91,10.0,SSW,4.6,-,N/A,,Overcast,200,2012-12-03 16:57:00
7:57 AM,77.0,68.0,74,29.93,10.0,SSW,6.9,-,N/A,,Scattered Clouds,210,2012-12-03 17:57:00
8:57 AM,77.0,68.0,74,29.95,10.0,South,6.9,-,N/A,,Scattered Clouds,190,2012-12-03 18:57:00
9:57 AM,81.1,70.0,69,29.96,10.0,SSW,8.1,-,N/A,,Mostly Cloudy,210,2012-12-03 19:57:00
10:34 AM,80.6,69.8,70,29.97,6.2,West,4.6,-,N/A,Rain,Rain,260,2012-12-03 20:34:00
10:57 AM,78.8,72.3,80,29.95,10.0,SW,3.5,-,N/A,Rain,Light Rain,230,2012-12-03 20:57:00
11:04 AM,78.8,71.6,78,29.97,6.2,SSW,4.6,-,N/A,,Overcast,200,2012-12-03 21:04:00
11:57 AM,78.8,72.0,79,29.94,10.0,SSW,12.7,-,N/A,,Overcast,210,2012-12-03 21:57:00
12:57 PM,79.5,73.4,81,29.91,10.0,South,6.9,-,N/A,,Mostly Cloudy,190,2012-12-03 22:57:00
1:57 PM,78.8,73.4,83,29.91,10.0,NNE,9.2,-,N/A,,Partly Cloudy,20,2012-12-03 23:57:00
2:57 PM,80.6,72.1,75,29.91,10.0,NNE,6.9,-,N/A,,Scattered Clouds,20,2012-12-04 00:57:00
3:57 PM,80.6,72.0,75,29.92,10.0,NNE,5.8,-,N/A,,Scattered Clouds,20,2012-12-04 01:57:00
4:57 PM,78.8,72.0,79,29.93,10.0,North,4.6,-,N/A,,Mostly Cloudy,10,2012-12-04 02:57:00
5:57 PM,76.3,70.5,82,29.94,10.0,Calm,Calm,-,N/A,,Scattered Clouds,0,2012-12-04 03:57:00
6:57 PM,75.2,71.1,87,29.96,10.0,ENE,3.5,-,N/A,,Scattered Clouds,60,2012-12-04 04:57:00
7:57 PM,76.5,70.5,82,29.98,10.0,Calm,Calm,-,N/A,,Scattered Clouds,0,2012-12-04 05:57:00
8:57 PM,73.4,69.8,88,29.99,10.0,Calm,Calm,-,N/A,,Partly Cloudy,0,2012-12-04 06:57:00
9:57 PM,73.4,71.6,94,30.00,10.0,Calm,Calm,-,N/A,,Scattered Clouds,0,2012-12-04 07:57:00
10:57 PM,73.4,72.0,95,30.00,10.0,Calm,Calm,-,N/A,,Scattered Clouds,0,2012-12-04 08:57:00
11:57 PM,73.4,71.6,94,29.99,10.0,Calm,Calm,-,N/A,,Partly Cloudy,0,2012-12-04 09:57:00